Location: Auckland
(36.8500°S, 174.7800°E)
Time: 17:19:57
(UTC+12:00)

ISS - Visible Passes

Search period start: 28 July 2021 00:00
Search period end: 07 August 2021 00:00
Orbit: 419 x 421 km, 51.6° (Epoch: 28 July)

Date Brightness Start Highest point End Pass type
(mag) Time Alt. Az. Time Alt. Az. Time Alt. Az.
03 Aug -1.2 06:52:39 10° SSW 06:54:35 14° SSE 06:56:30 10° ESE visible
04 Aug -1.0 06:06:15 10° S 06:07:12 11° SSE 06:08:10 10° SE visible
06 Aug -1.5 06:07:47 10° SSW 06:10:23 20° SSE 06:12:58 10° ESE visible
